Regional Weather Roundup
Issued by NWS

Home | Current Version | Previous Version | Text Only | Print | Product List | Glossary Off
Versions: 1 2 3 4 5 6 7 8 9 10 11 12 13 14 15 16 17 18 19 20 21 22 23 24 25 26 27 28 29 30 31 32 33 34 35 36 37 38 39 40 41 42 43 44 45 46 47 48 49 50

000
ASUS43 KMKX 300721
RWRWI

WISCONSIN REGIONAL WEATHER ROUNDUP
NATIONAL WEATHER SERVICE MILWAUKEE/SULLIVAN WI
200 AM CDT SAT AUG 30 2014

NOTE: "FAIR" INDICATES FEW OR NO CLOUDS BELOW 12,000 FEET WITH NO
SIGNIFICANT WEATHER AND/OR OBSTRUCTIONS TO VISIBILITY.

WIZ001-002-006>008-014>016-023>028-300800-
NORTHWEST WISCONSIN

CITY           SKY/WX    TMP DP  RH WIND       PRES   REMARKS
SUPERIOR ARPT  CLOUDY    61  61  99 CALM      29.79S
ASHLAND        CLOUDY    63  62  97 NE5       29.80S
HAYWARD        LGT RAIN  64  64 100 N3        29.78F FOG
SIREN          DRIZZLE   65  64  97 CALM      29.78F
RICE LAKE      CLOUDY    64  63  95 CALM      29.78F
LADYSMITH      CLOUDY    65  64  96 NE3       29.80S FOG
EAU CLAIRE     LGT RAIN  67  67 100 SE5       29.76R
MENOMONIE      CLOUDY    67  66  99 CALM      29.76R FOG
NEW RICHMOND   LGT RAIN  65  65 100 NW3       29.77S
OSCEOLA        HVY RAIN  66  66 100 CALM      29.80F
$$

WIZ003>005-009-010-017-018-300800-
NORTH CENTRAL WISCONSIN

CITY           SKY/WX    TMP DP  RH WIND       PRES   REMARKS
WOODRUFF       RAIN      65  63  94 CALM      29.81F
RHINELANDER    LGT RAIN  63  63 100 S6        29.82F
EAGLE RIVER    RAIN      63  63 100 CALM      29.81F
LAND O LAKES   CLOUDY    64  64  99 CALM      29.83F
PHILLIPS       DRIZZLE   63  63 100 CALM      29.79S
TOMAHAWK       LGT RAIN  64  63  97 SE3       29.80F
MEDFORD        CLOUDY    64  63  98 SE7       29.80S
MERRILL        LGT RAIN  65  65 100 S5        29.80F
$$

WIZ029-030-035-036-043>047-300800-
CENTRAL WISCONSIN

CITY           SKY/WX    TMP DP  RH WIND       PRES   REMARKS
WAUSAU         LGT RAIN  66  65  96 SE3       29.79F FOG
MOSINEE        LGT RAIN  64  64 100 CALM      29.81F
MARSHFIELD     LGT RAIN  66  65  96 E7        29.78F FOG
STEVENS POINT  RAIN      64  64  99 N3        29.79F
WAUPACA        LGT RAIN  68  67  94 N3        29.80S
WAUTOMA        CLOUDY    68  67  96 E6        29.78F
WISC RAPIDS    CLOUDY    67  66  97 CALM      29.78F
CAMP DOUGLAS   CLOUDY    68  68 100 E3        29.75F
$$

WIZ011>013-019>022-031-037>040-048>050-300800-
NORTHEAST WISCONSIN

CITY           SKY/WX    TMP DP  RH WIND       PRES   REMARKS
ANTIGO         LGT RAIN  64  64 100 CALM      29.82F
STURGEON BAY   CLOUDY    70  66  88 S6        29.81S
GREEN BAY      TSTM      72  71  97 NW6       29.79F FOG
MANITOWOC      CLOUDY    71  69  93 SW7       29.80F
APPLETON       CLOUDY    72  63  73 NW13G21   29.82R
CLINTONVILLE   RAIN      66  64  94 CALM      29.80F
OSHKOSH        CLOUDY    73  69  87 S9        29.78S
$$

WIZ032>034-041-042-053>061-300800-
SOUTHWEST WISCONSIN

CITY           SKY/WX    TMP DP  RH WIND       PRES   REMARKS
LA CROSSE      LGT RAIN  69  67  93 CALM      29.74F FOG
SPARTA         LGT RAIN  67  66  97 CALM      29.75F
VIROQUA        CLOUDY    67  67 100 SW6       29.76F
BOSCOBEL       CLOUDY    71  67  87 SW8       29.76F
PRAIRIE DU CHI MOCLDY    69  66  92 CALM      29.76F
PLATTEVILLE    CLOUDY    71  69  93 S9G16     29.80F
$$

WIZ056-057-062-063-064-067-068-300800-
SOUTH CENTRAL WISCONSIN

CITY           SKY/WX    TMP DP  RH WIND       PRES   REMARKS
BARABOO/DELLS  CLOUDY    70  67  89 S10       29.76F
LONE ROCK      CLOUDY    76  70  82 SW7       29.76F
WATERTOWN      CLOUDY    72  70  93 S7        29.80F
MADISON        CLOUDY    72  69  90 S8        29.78F
MIDDLETON      CLOUDY    72  71  95 S9        29.79F
MONROE         CLOUDY    70  68  94 S13G18    29.80F
JANESVILLE     CLOUDY    72  68  88 S9        29.80F
$$

WIZ051-052-058>065-066-070>072-300800-
SOUTHEAST WISCONSIN

CITY           SKY/WX    TMP DP  RH WIND       PRES   REMARKS
MILWAUKEE      CLOUDY    73  69  87 S7        29.82F
WAUKESHA       CLOUDY    70  68  94 S8        29.82F
MILWAUKEE/TIMM CLOUDY    72  68  88 S7        29.82F
RACINE         CLOUDY    73  69  87 S7        29.84F
BURLINGTON     CLOUDY    70  68  93 S5        29.82F
KENOSHA        CLOUDY    74  69  85 S8        29.83F
FOND DU LAC    CLOUDY    73  68  84 S12       29.79F
SHEBOYGAN      CLOUDY    71  69  93 S10       29.80F FOG
WEST BEND      CLOUDY    72  66  83 S8        29.81F
JUNEAU         CLOUDY    72  68  87 S12       29.81F
$$

LSZ147-162-300800-
LAKE SUPERIOR

STATION/POSITION TIME  TEMP    WIND        PRES    WAVE
                       AIR SEA DIR/SP/G            HT/PER
                 (UTC) (F)     (DEG/KT/KT) (MB)    (FT/S)
W MID LAKE BUOY  0650   58 58   50/  4/  4 1008.8R   0
DEVILS ISLAND    0700   61      70/  4/  4 1009.0R
PORT WING        0640   62     120/  1/  2 1008.8F
SAXON HARBOR     0600   63      40/  6/  7 1009.1R
$$

LMZ867-665-643>646-300800-
LAKE MICHIGAN

STATION/POSITION TIME  TEMP    WIND        PRES    WAVE
                       AIR SEA DIR/SP/G            HT/PER
                 (UTC) (F)     (DEG/KT/KT) (MB)    (FT/S)
N MID LAKE BUOY  0650   68 65  210/ 12/ 14 1009.4F   4/ 6
NORTHPORT PIER   0600   69     190/  1/  7 1009.8F
SISTER BAY       0626   71     190/  6/  8   N/A
ALGOMA LAKESHORE 0553          220/  7/  8   N/A
KEWAUNEE LAKESHO 0600   65     180/  7/ 10 1009.0F
SHEBOYGAN LAKESH 0700   69 62  180/ 20/ 20 1009.0F
ATWATER BUOY     0700   69     160/ 14/ 16 1010.5F
MILWAUKEE LAKESH 0700   72     180/  9/ 10   N/A
S MID LAKE BUOY  0650   72 69  170/ 17/ 19 1010.5F
KENOSHA   LAKESH 0700   70     180/ 11/ 12 1009.8F
$$

TC  - TEMPERATURE IN CELSIUS
VSB - VISIBILITY IN STATUTE MILES
WCI - WIND CHILL INDEX
HX  - HEAT INDEX




USA.gov is the U.S. government's official web portal to all federal, state and local government web resources and services.